Showing default

GGSE 4, 2828

Orbit data source: Space-Track

GGSE 4, 2828 is an American payload satellite in LEO that was launched on Wed, 31 May 1967 UTC via a THOR SLV-2 AGENA D launch vehicle from the Air Force Western Test Range (AFWTR). Payloads include a variety of satellites, spacecraft, and rockets equipped with specific instruments for various scientific and technological missions. These include communications satellites like Starlink; space stations such as the ISS; scientific satellites like the Hubble; Earth observation satellites from companies like Planet Labs, Umbra, and HawkEye 360; GPS; miniature CubeSats for education and research; and military/defense satellites.

Loading next visibility...
GGSE 4 details
Identifier
2828, 1967-053C
Orbit
LEO
Last TLE update12 hours ago
Origin
Flag of USNRO/NRL (US)
ManufacturerNRL
MissionDefense Technology
Bus & MotorNRL MULTI, Unknown motor
Mass85 kg wet, 85 kg dry
Launch date (UTC)
1967-05-31 (58 years ago)
Launch vehicle
THOR SLV-2 AGENA D
Launch site
Air Force Western Test Range (AFWTR)
Object type
Payload
Rocket body
Debris
Shape & HBREll + 2 Ant, 18 m
Radar Cross Section1.247 m², Medium (>0.1 m² and < 1m²)

Expand to show TLE details & history

TLE from 12 hours ago
0 GGSE 4
1  2828U 67053C   25013.92956325  .00000137  00000-0  13412-3 0  9998
2  2828  69.9715  98.2715 0005545 144.6222 215.5253 13.97918230936128
Epoch: 2025-01-13T22:18Z
Definitive object data (Epoch: 2025-01-13T22:18:34.264Z)
Latitude-0.00007°
Longitude9.98515°
Altitude906.612 km
Speed7.397 km/s
True Right ascension06h 33m 05s
True Declination0° 00' 00"
Sunlit
Object was in full shadow at TLE epoch
Visualization TLE readout
Latitude-50.53732°
Longitude-17.20145°
Altitude923.821 km
Speed7.387 km/s
Apparent Right ascension01h 36m 06s
Apparent Declination-55° 21' 47"
Sunlit
Object is in daylight
Visualization observer readout
Local Sidereal Time10:40:04
Azimuth226.961° WSW
Elevation-57.298°
Doppler factor1
Orbital elements
Apogee altitude903.092 km
Perigee altitude895.022 km
Semi-major axis7,277.194 km
Eccentricity0.0005545
Inclination69.9715°
RAAN98.2715°
Arg. of periapsis144.6222°
True anomaly215.4884°
Mean anomaly215.5253°
Eccentric anomaly215.50685°
Mean motion3.49621 °/min
BSTAR0.00013412
Orbital period102.97 mins
Loading maneuver chart data...
Loading historical data...
Loading historical data...
Loading historical data...
Loading historical data...
Loading historical data...
Loading historical data...
Loading historical data...

GGSE 4 Visibility forecast

Observer location: undefined°, undefined

Span
Click to sort rows by Start time (UTC) header in descending order
Start Az.
Max El. time (UTC)
Max El. Az.
Max El.
End time (UTC)
End Az.
11 mins2025-01-14 16:02:02.372Z345.948° N2025-01-14 16:07:02.372Z50.552° ENE38.156°2025-01-14 16:13:02.372Z137.336° SSE
7 mins2025-01-14 17:49:02.372Z298.964° NW2025-01-14 17:52:02.372Z263.022° W20.954°2025-01-14 17:56:02.372Z214.421° SW
5 mins2025-01-15 05:22:02.372Z123.84° SE2025-01-15 05:24:02.372Z100.781° ESE16.191°2025-01-15 05:27:02.372Z67.603° E
9 mins2025-01-15 07:05:02.372Z217.196° SW2025-01-15 07:09:02.372Z302.557° NW42.927°2025-01-15 07:14:02.372Z18.455° NNE
|